Location: Newark
(43.0000°N, 1.6781°W)
Time: 17:12:45
(UTC+00:00)

A-11 Canister half - All Passes

Search period start: 24 September 2022 00:00
Search period end: 04 October 2022 00:00
Orbit: 1515 x 1684 km, 47.2° (Epoch: 23 September)

Date Brightness Start Highest point End Pass type
(mag) Time Alt. Az. Time Alt. Az. Time Alt. Az.
24 Sep - 01:06:01 10° W 01:15:25 73° N 01:24:42 10° ENE visible
24 Sep - 03:11:41 10° WNW 03:21:01 75° NNE 03:30:18 10° E visible
24 Sep - 05:16:49 10° WNW 05:25:49 59° SW 05:34:53 10° SE visible
24 Sep - 07:23:36 10° W 07:29:12 18° SW 07:34:53 10° SSW daylight
24 Sep - 20:37:30 10° S 20:43:59 21° SE 20:50:20 10° E visible
24 Sep - 22:38:10 10° SW 22:47:33 63° SE 22:56:41 10° ENE visible
25 Sep - 00:43:01 10° W 00:52:29 74° NNW 01:01:45 10° ENE visible
25 Sep - 02:48:44 10° WNW 02:58:04 74° NNE 03:07:21 10° E visible
25 Sep - 04:53:52 10° WNW 05:02:56 62° SW 05:12:03 10° SE visible
25 Sep - 07:00:24 10° W 07:06:24 19° SW 07:12:28 10° SSW daylight
25 Sep - 20:15:01 10° SSE 20:21:09 19° SE 20:27:10 10° E visible
25 Sep - 22:15:18 10° SW 22:24:39 60° SE 22:33:45 10° ENE night (unlit)
26 Sep - 00:20:02 10° W 00:29:31 75° NNW 00:38:49 10° ENE visible
26 Sep - 02:25:46 10° WNW 02:35:07 73° N 02:44:23 10° E visible
26 Sep - 04:30:57 10° WNW 04:40:03 65° SSW 04:49:11 10° SE visible
26 Sep - 06:37:15 10° W 06:43:35 21° SW 06:50:00 10° S daylight
26 Sep - 19:52:37 10° SSE 19:58:20 17° SE 20:03:56 10° E visible
26 Sep - 21:52:26 10° SW 22:01:46 57° SE 22:10:50 10° ENE visible
26 Sep - 23:57:03 10° WSW 00:06:34 77° NNW 00:15:53 10° ENE visible
27 Sep - 02:02:48 10° WNW 02:12:10 72° N 02:21:25 10° E visible
27 Sep - 04:08:00 10° WNW 04:17:10 68° SSW 04:26:20 10° SE visible
27 Sep - 06:14:07 10° W 06:20:46 23° SW 06:27:30 10° S daylight
27 Sep - 19:30:16 10° SSE 19:35:31 16° SE 19:40:40 10° E visible
27 Sep - 21:29:35 10° SW 21:38:53 55° SE 21:47:54 10° ENE visible
27 Sep - 23:34:03 10° WSW 23:43:38 78° NNW 23:52:57 10° ENE visible
28 Sep - 01:39:50 10° WNW 01:49:13 71° N 01:58:28 10° E visible
28 Sep - 03:45:04 10° WNW 03:54:16 71° SSW 04:03:28 10° SE visible
28 Sep - 05:51:01 10° W 05:57:57 24° SW 06:04:57 10° S daylight
28 Sep - 19:08:01 10° SSE 19:12:42 15° SE 19:17:19 10° E visible
28 Sep - 21:06:45 10° SSW 21:16:00 52° SE 21:24:58 10° ENE visible
28 Sep - 23:11:05 10° WSW 23:20:41 80° NNW 23:30:01 10° ENE visible
29 Sep - 01:16:51 10° WNW 01:26:16 70° N 01:35:30 10° E visible
29 Sep - 03:22:07 10° WNW 03:31:23 74° SSW 03:40:36 10° SE visible
29 Sep - 05:27:56 10° WNW 05:35:08 26° SW 05:42:23 10° S visible
29 Sep - 18:45:53 10° SSE 18:49:53 13° ESE 18:53:50 10° E visible
29 Sep - 20:43:56 10° SSW 20:53:07 49° SE 21:02:01 10° ENE visible
29 Sep - 22:48:06 10° WSW 22:57:44 82° NNW 23:07:06 10° ENE visible
30 Sep - 00:53:52 10° WNW 01:03:18 70° N 01:12:32 10° E visible
30 Sep - 02:59:11 10° WNW 03:08:29 77° SSW 03:17:43 10° SE visible
30 Sep - 05:04:52 10° WNW 05:12:19 28° SW 05:19:47 10° S visible
30 Sep - 18:23:57 10° SE 18:27:05 12° ESE 18:30:10 10° ESE visible
30 Sep - 20:21:07 10° SSW 20:30:14 47° SE 20:39:05 10° ENE visible
30 Sep - 22:25:07 10° WSW 22:34:47 84° NNW 22:44:10 10° ENE visible
01 Oct - 00:30:53 10° W 00:40:20 69° N 00:49:35 10° E visible
01 Oct - 02:36:14 10° WNW 02:45:35 80° SSW 02:54:49 10° ESE visible
01 Oct - 04:41:51 10° WNW 04:49:29 30° SW 04:57:09 10° S visible
01 Oct - 18:02:31 10° SE 18:04:16 11° ESE 18:06:02 10° ESE daylight
01 Oct - 19:58:20 10° SSW 20:07:22 44° SE 20:16:08 10° ENE visible
01 Oct - 22:02:08 10° WSW 22:11:51 86° NNW 22:21:14 10° ENE visible
02 Oct - 00:07:54 10° W 00:17:23 69° N 00:26:37 10° E visible
02 Oct - 02:13:18 10° WNW 02:22:41 82° SSW 02:31:56 10° ESE visible
02 Oct - 04:18:49 10° WNW 04:26:39 32° SW 04:34:30 10° SSE visible
02 Oct - 19:35:33 10° SSW 19:44:30 42° SE 19:53:10 10° ENE visible
02 Oct - 21:39:10 10° WSW 21:48:54 88° NNW 21:58:20 10° ENE visible
02 Oct - 23:44:54 10° W 23:54:25 69° N 00:03:40 10° E visible
03 Oct - 01:50:21 10° WNW 01:59:46 85° SSW 02:09:01 10° ESE visible
03 Oct - 03:55:48 10° WNW 04:03:50 34° SW 04:11:51 10° SSE visible
03 Oct - 19:12:46 10° SSW 19:21:38 40° SE 19:30:12 10° ENE visible
03 Oct - 21:16:12 10° WSW 21:25:57 90° S 21:35:24 10° ENE visible
03 Oct - 23:21:54 10° W 23:31:26 68° N 23:40:43 10° E visible
